Simultaneous Nadir Overpasses (SNOs) Predictions

Prediction of SNOs between AQUA and NOAA-19 Satellite Orbit:

Table of predicted SNOs for the next 14.0 days since TLE Epoch: 3/9/2012
Index Date (AQUA) Time (AQUA) AQUA Lat,Lon Date (NOAA-19) Time (NOAA-19) NOAA-19 Lat,Lon Distance(km) Time Diff (sec)
1 03/11/2012 07:13:46 -46.02, 104.00 03/11/2012 07:12:47 -45.99, 104.03 3.76 59
2 03/11/2012 08:00:07 56.79, -83.47 03/11/2012 08:00:38 56.79, -83.47 0.37 31
3 03/13/2012 11:57:10 -49.04, 34.12 03/13/2012 11:56:41 -49.03, 34.10 1.22 29
4 03/13/2012 12:43:38 59.35,-152.99 03/13/2012 12:44:40 59.35,-153.01 1.66 62
5 03/15/2012 16:40:13 -53.25, -35.07 03/15/2012 16:40:14 -53.25, -35.09 1.31 1
6 03/15/2012 17:17:27 78.43,-100.12 03/15/2012 17:18:39 77.84,-102.66 88.18 72
7 03/17/2012 20:37:00 46.01, 83.20 03/17/2012 20:36:05 46.00, 83.21 1.85 55
8 03/17/2012 21:23:16 -57.41,-103.93 03/17/2012 21:23:47 -57.41,-103.92 0.88 31
9 03/20/2012 01:19:54 50.74, 14.05 03/20/2012 01:19:29 50.74, 14.06 0.65 25
10 03/20/2012 02:06:39 -60.35,-173.14 03/20/2012 02:07:41 -60.35,-173.12 1.16 62
11 03/22/2012 06:03:01 54.64, -55.17 03/22/2012 06:03:07 54.64, -55.16 0.26 6




NCC Satellite Simultaneous Nadir Overpasses (SNOs) Prediction Service
